Weather History for KASL - November, 2013

Change the Weather History Date:

Monday, November 11, 2013

  Actual Average (KGGG) Record (KGGG)
Temperature  
Mean Temperature 58 °F 58 °F  
Max Temperature 70 °F 69 °F 90 °F (1911)
Min Temperature 45 °F 47 °F 23 °F (1950)
Degree Days  
Heating Degree Days 8 8  
Month to date heating degree days 71  
Since 1 July heating degree days 160  
Cooling Degree Days 0 1  
Month to date cooling degree days 14  
Year to date cooling degree days 2409  
Growing Degree Days 8 (Base 50)    
Moisture  
Dew Point 47 °F    
Average Humidity 77    
Maximum Humidity 93    
Minimum Humidity 36    
Precipitation  
Precipitation 0.00 in 0.15 in 4.19 in (1985)
Month to date precipitation 1.52  
Year to date precipitation 40.09  
Snow  
Snow 0.00 in - - ()
Month to date snowfall  
Since 1 July snowfall  
Since 1 September snowfall  
Snow Depth -    
Sea Level Pressure  
Sea Level Pressure 30.26 in    
Wind  
Wind Speed 0 mph (NNE)    
Max Wind Speed 6 mph    
Max Gust Speed -    
Visibility 9 miles    
Events      
T = Trace of Precipitation, MM = Missing Value Source: NWS Daily Summary

Daily Weather History Graph

Daily Weather History Graph

Search for Another Location

Airport or City:

Trip Planner

Search our weather history database for the weather conditions in past years. The results will help you decide how hot, cold, wet, or windy it might be!

Date:

Astronomy

Nov. 11, 2013 Rise Set
Actual Time 6:43 AM CST 5:18 PM CST
Civil Twilight 6:17 AM CST 5:44 PM CST
Nautical Twilight 5:48 AM CST 6:14 PM CST
Astronomical Twilight 5:19 AM CST 6:43 PM CST
Moon 1:42 PM CST (11/11) 12:49 AM CST (11/11)
Length of Visible Light 11h 26m
Length of Day
10h 35m
Waxing Gibbous, 66% of the Moon is Illuminated
Nov 11
Waxing Gibbous
Nov 17
Full
Nov 25
Last Quarter
Dec 2
New
Dec 9
First Quarter

Hourly Weather History & Observations

Time (CST) Temp. Dew Point Humidity Pressure Visibility Wind Dir Wind Speed Gust Speed Precip Events Conditions
12:15 AM 48.2 °F 45.9 °F 92% 30.29 in 7.0 mi Calm Calm - N/A   Clear
12:35 AM 48.2 °F 46.0 °F 92% 30.29 in 10.0 mi Calm Calm - N/A   Clear
12:55 AM 48.2 °F 46.0 °F 92% 30.29 in 7.0 mi Calm Calm - N/A   Clear
1:15 AM 47.1 °F 45.1 °F 93% 30.29 in 7.0 mi Calm Calm - N/A   Clear
1:35 AM 45.7 °F 43.7 °F 93% 30.29 in 7.0 mi Calm Calm - N/A   Clear
1:55 AM 46.9 °F 45.0 °F 93% 30.28 in 10.0 mi Calm Calm - N/A   Clear
2:15 AM 46.0 °F 44.1 °F 93% 30.28 in 7.0 mi Calm Calm - N/A   Clear
2:35 AM 45.7 °F 43.7 °F 93% 30.27 in 10.0 mi Calm Calm - N/A   Clear
2:55 AM 45.7 °F 43.7 °F 93% 30.27 in 7.0 mi Calm Calm - N/A   Clear
3:15 AM 45.7 °F 43.7 °F 93% 30.27 in 7.0 mi Calm Calm - N/A   Clear
3:35 AM 45.7 °F 43.7 °F 93% 30.27 in 10.0 mi Calm Calm - N/A   Clear
3:55 AM 45.7 °F 43.7 °F 93% 30.27 in 10.0 mi Calm Calm - N/A   Clear
4:15 AM 45.7 °F 43.7 °F 93% 30.27 in 7.0 mi Calm Calm - N/A   Clear
4:35 AM 45.7 °F 43.7 °F 93% 30.27 in 7.0 mi Calm Calm - N/A   Clear
4:55 AM 45.7 °F 43.7 °F 93% 30.27 in 5.0 mi Calm Calm - N/A   Clear
5:15 AM 45.7 °F 43.7 °F 93% 30.28 in 10.0 mi Calm Calm - N/A   Clear
5:35 AM 45.7 °F 43.7 °F 93% 30.28 in 7.0 mi Calm Calm - N/A   Clear
5:55 AM 45.7 °F 43.7 °F 93% 30.28 in 5.0 mi Calm Calm - N/A   Clear
6:15 AM 45.7 °F 43.7 °F 93% 30.29 in 7.0 mi Calm Calm - N/A   Clear
6:35 AM 45.7 °F 43.7 °F 93% 30.29 in 5.0 mi Calm Calm - N/A   Clear
6:55 AM 45.7 °F 43.7 °F 93% 30.30 in 7.0 mi Calm Calm - N/A   Clear
7:15 AM 45.7 °F 43.9 °F 93% 30.30 in 5.0 mi Calm Calm - N/A   Clear
7:35 AM 45.7 °F 43.7 °F 93% 30.31 in 7.0 mi Calm Calm - N/A   Clear
7:55 AM 47.8 °F 45.9 °F 93% 30.31 in 10.0 mi Calm Calm - N/A   Clear
8:15 AM 50.5 °F 48.6 °F 93% 30.31 in 10.0 mi Calm Calm - N/A   Clear
8:35 AM 52.5 °F 50.5 °F 93% 30.31 in 10.0 mi Calm Calm - N/A   Clear
8:55 AM 55.6 °F 51.4 °F 86% 30.31 in 10.0 mi Calm Calm - N/A   Clear
9:15 AM 58.1 °F 50.7 °F 76% 30.32 in 10.0 mi Calm Calm - N/A   Clear
9:35 AM 59.0 °F 48.9 °F 69% 30.32 in 10.0 mi Calm Calm - N/A   Clear
9:55 AM 60.8 °F 46.2 °F 59% 30.32 in 10.0 mi Calm Calm - N/A   Clear
10:15 AM 63.1 °F 49.1 °F 60% 30.31 in 10.0 mi Calm Calm - N/A   Clear
10:35 AM 65.7 °F 46.8 °F 50% 30.31 in 10.0 mi Calm Calm - N/A   Clear
10:55 AM 65.7 °F 48.0 °F 53% 30.30 in 10.0 mi Calm Calm - N/A   Clear
11:15 AM 65.7 °F 45.9 °F 49% 30.29 in 10.0 mi Calm Calm - N/A   Clear
11:35 AM 65.7 °F 44.2 °F 46% 30.29 in 10.0 mi Calm Calm - N/A   Clear
11:55 AM 66.0 °F 45.3 °F 47% 30.28 in 10.0 mi ENE 3.5 mph - N/A   Clear
12:15 PM 65.7 °F 43.7 °F 45% 30.26 in 10.0 mi Calm Calm - N/A   Clear
12:35 PM 68.2 °F 44.8 °F 43% 30.26 in 10.0 mi Calm Calm - N/A   Clear
12:55 PM 68.2 °F 45.5 °F 44% 30.24 in 10.0 mi NE 3.5 mph - N/A   Clear
1:15 PM 68.5 °F 46.6 °F 45% 30.23 in 10.0 mi NW 5.8 mph - N/A   Clear
1:35 PM 69.6 °F 46.0 °F 43% 30.22 in 10.0 mi North 4.6 mph - N/A   Clear
1:55 PM 70.7 °F 42.8 °F 36% 30.22 in 10.0 mi Calm Calm - N/A   Clear
2:15 PM 70.7 °F 44.1 °F 38% 30.21 in 10.0 mi Calm Calm - N/A   Clear
2:35 PM 70.7 °F 46.9 °F 43% 30.21 in 10.0 mi North 3.5 mph - N/A   Clear
2:55 PM 70.7 °F 46.6 °F 42% 30.20 in 10.0 mi Calm Calm - N/A   Clear
3:15 PM 70.7 °F 47.7 °F 44% 30.20 in 10.0 mi Calm Calm - N/A   Clear
3:35 PM 70.7 °F 47.3 °F 43% 30.20 in 10.0 mi Calm Calm - N/A   Clear
3:55 PM 70.7 °F 48.9 °F 46% 30.20 in 10.0 mi Calm Calm - N/A   Clear
4:15 PM 70.7 °F 50.5 °F 49% 30.20 in 10.0 mi Calm Calm - N/A   Clear
4:35 PM 70.2 °F 52.9 °F 54% 30.20 in 10.0 mi Calm Calm - N/A   Clear
4:55 PM 65.7 °F 52.9 °F 63% 30.20 in 10.0 mi Calm Calm - N/A   Clear
5:15 PM 61.7 °F 52.9 °F 73% 30.20 in 10.0 mi Calm Calm - N/A   Clear
5:35 PM 58.1 °F 52.9 °F 83% 30.20 in 10.0 mi Calm Calm - N/A   Clear
5:55 PM 56.7 °F 52.9 °F 87% 30.21 in 10.0 mi Calm Calm - N/A   Clear
6:15 PM 55.6 °F 51.8 °F 87% 30.22 in 10.0 mi Calm Calm - N/A   Clear
6:35 PM 55.6 °F 52.0 °F 88% 30.23 in 10.0 mi Calm Calm - N/A   Clear
6:55 PM 53.1 °F 50.2 °F 90% 30.23 in 10.0 mi Calm Calm - N/A   Clear
7:15 PM 53.1 °F 50.2 °F 90% 30.24 in 10.0 mi Calm Calm - N/A   Clear
7:35 PM 53.1 °F 50.2 °F 90% 30.24 in 10.0 mi Calm Calm - N/A   Clear
7:55 PM 53.1 °F 50.4 °F 91% 30.24 in 10.0 mi Calm Calm - N/A   Clear
8:15 PM 53.1 °F 50.4 °F 91% 30.25 in 10.0 mi Calm Calm - N/A   Clear
8:35 PM 51.8 °F 49.3 °F 91% 30.26 in 10.0 mi Calm Calm - N/A   Clear
8:55 PM 50.5 °F 48.2 °F 92% 30.26 in 10.0 mi Calm Calm - N/A   Clear
9:15 PM 50.5 °F 48.2 °F 92% 30.27 in 10.0 mi Calm Calm - N/A   Clear
9:35 PM 50.5 °F 48.2 °F 92% 30.27 in 10.0 mi Calm Calm - N/A   Clear
9:55 PM 50.5 °F 48.2 °F 92% 30.28 in 10.0 mi Calm Calm - N/A   Clear
10:15 PM 50.5 °F 48.4 °F 92% 30.28 in 10.0 mi Calm Calm - N/A   Clear
10:35 PM 50.5 °F 48.4 °F 92% 30.28 in 10.0 mi Calm Calm - N/A   Clear
10:55 PM 50.0 °F 48.0 °F 93% 30.28 in 7.0 mi Calm Calm - N/A   Clear
11:15 PM 50.5 °F 48.4 °F 92% 30.29 in 10.0 mi Calm Calm - N/A   Clear
11:35 PM 50.5 °F 48.4 °F 92% 30.29 in 10.0 mi Calm Calm - N/A   Clear
11:55 PM 48.7 °F 46.6 °F 92% 30.29 in 10.0 mi Calm Calm - N/A   Clear